Flag for Austria Weather past 2 weeks in Judenburg, Styria, Austria

Now
55 °F

Broken clouds.


Feels Like: 55 °F
Forecast: 46 / 65 °F
Wind: 2 mph from North

Location: Zeltweg

Current Time: Aug 20, 2014 at 11:00:42 AM

Latest Report: Aug 20, 2014 at 10:20 AM


Visibility: 9 mi

Pressure: 30.04 "Hg

Humidity: 94%

Dew point: 54 °F

Location of JudenburgLocation

Historic Weather in Judenburg — Graph

°F

Judenburg temperature yesterday

Maximum temperature yesterday: 70 °F (at 1:50 PM)
Minimum temperature yesterday: 48 °F (at 5:50 AM)
Average temperature yesterday: 61 °F

Past Weeks' High & Low Weather Summary

 TemperatureHumidityPressure
High84 °F (Aug 13, 5:50 PM)100% (Aug 6, 4:50 AM)30.15 "Hg (Aug 6, 4:50 AM)
Low43 °F (Aug 18, 5:50 AM)34% (Aug 8, 1:50 PM)29.71 "Hg (Aug 13, 1:50 PM)
Average63 °F74%29.99 "Hg
* Reported Aug 5 9:50 AM — Aug 20 9:50 AM, Judenburg, Weather by CustomWeather, © 2014

Note: Actual official high and low records may vary slightly from our data, if they occured in-between our weather recording intervals... More about our weather records

Advertising

Judenburg weather history for previous 24 hours

 ConditionsComfort  
Time TempWeatherWind HumidityBarometerVisibility
9:50 AM
Aug 20
54 °FBroken clouds.2 mph94%30.04 "Hg9 mi
9:20 AM54 °FDrizzle. Broken clouds.2 mph94%30.04 "Hg9 mi
8:50 AM54 °FRain showers. Partly sunny.2 mph94%30.04 "Hg5 mi
8:20 AM54 °FPartly sunny.1 mph94%30.04 "Hg12 mi
7:50 AM54 °FBroken clouds.1 mph94%30.04 "Hg12 mi
7:20 AM54 °FSprinkles. Partly sunny.1 mph94%30.04 "Hg9 mi
6:50 AM52 °FPassing clouds.1 mph100%30.04 "Hg9 mi
5:50 AM52 °FPassing clouds.2 mph94%30.01 "Hg9 mi
10:50 PM
Aug 19
52 °FPassing clouds.3 mph94%30.01 "Hg9 mi
9:50 PM59 °FPassing clouds.2 mph72%29.98 "Hg9 mi
8:50 PM57 °FPartly sunny.2 mph82%29.98 "Hg12 mi
7:50 PM63 °FBroken clouds.6 mph73%29.95 "Hg16 mi
7:20 PM64 °FBroken clouds.7 mph64%29.95 "Hg16 mi
6:50 PM66 °FPartly sunny.7 mph56%29.92 "Hg16 mi
6:20 PM66 °FPartly sunny.9 mph56%29.92 "Hg16 mi
5:50 PM66 °FPartly sunny.9 mph56%29.95 "Hg16 mi
5:20 PM66 °FPartly sunny.10 mph56%29.95 "Hg16 mi
4:50 PM66 °FPartly sunny.13 mph60%29.92 "Hg16 mi
4:20 PM66 °FBroken clouds.13 mph64%29.92 "Hg16 mi
3:50 PM68 °FBroken clouds.13 mph60%29.92 "Hg16 mi
3:20 PM68 °FBroken clouds.7 mph60%29.92 "Hg16 mi
2:50 PM68 °FBroken clouds.7 mph60%29.92 "Hg16 mi
2:20 PM70 °FBroken clouds.2 mph57%29.92 "Hg16 mi
1:50 PM70 °FPartly sunny.3 mph60%29.92 "Hg16 mi
1:20 PM68 °FPartly sunny.2 mph60%29.92 "Hg16 mi
12:50 PM68 °FPartly sunny.2 mph60%29.92 "Hg16 mi
12:20 PM66 °FBroken clouds.3 mph64%29.92 "Hg16 mi
11:50 AM68 °FBroken clouds.1 mph60%29.95 "Hg16 mi
11:20 AM66 °FBroken clouds.2 mph68%29.95 "Hg12 mi
Weather by CustomWeather, © 2014

See weather overviewHow to use our weather pages